Location: Recife
(8.0585°S, 34.8848°W)
Time: 12:38:30
(UTC-03:00)

Injun/Solrad 3 - Pass Details

Date: 20 April 2026
Orbit: 868 x 988 km, 66.8° (Epoch: 12 May)

Event Time Altitude Azimuth Distance (km) Brightness Sun altitude
Rises 07:07:27 0° 343° (NNW) 3,678 11.0 24.6°
Reaches altitude 10° 07:10:02 10° 345° (NNW) 2,731 10.5 25.2°
Maximum altitude 07:16:26 79° 71° (ENE) 998 8.8 26.7°
Drops below altitude 10° 07:22:46 10° 156° (SSE) 2,700 10.5 28.2°
Sets 07:25:18 0° 157° (SSE) 3,633 11.1 28.8°
